This demonstration page uses our WeatherBlox Daily Observations layout. Learn more.

40.92945, -100.16068

Hourly Observations for December 28, 2016

Temp ( °F °C ) Dew Point ( °F °C ) Humidity (%) Winds ( mph kmh ) Pressure ( in mb ) Visibility ( mi km ) Precip ( " mm )
12:15 am 00:15 Clear 26 -3.2 21 -5.9 82 82 W 3 6 30 1016 10 16.0934 N/A
12:35 am 00:35 Clear 26 -3.1 21 -6.1 80 80 WNW 3 6 30 1016 10 16.0934 N/A
12:55 am 00:55 Clear 27 -2.7 22 -5.6 81 81 WNW 3 6 30 1016 10 16.0934 N/A
1:15 am 01:15 Clear 29 -1.7 22 -5.8 74 74 W 5 7 30 1016 10 16.0934 N/A
1:35 am 01:35 Clear 28 -2.5 21 -6 77 77 W 3 6 30 1016 10 16.0934 N/A
1:55 am 01:55 Clear 28 -2.5 22 -5.3 81 81 W 5 7 30 1016 10 16.0934 N/A
2:15 am 02:15 Clear 27 -2.8 22 -5.8 80 80 W 6 9 30 1016 10 16.0934 N/A
2:35 am 02:35 Clear 28 -2.5 23 -5.2 82 82 WNW 3 6 30 1016 10 16.0934 N/A
2:55 am 02:55 Clear 24 -4.2 20 -6.4 85 85 N 5 7 30.03 1017 10 16.0934 N/A
3:15 am 03:15 Clear 24 -4.4 21 -6.3 87 87 Calm 30.03 1017 10 16.0934 N/A
3:35 am 03:35 Clear 25 -4 21 -6 86 86 Calm 30.03 1017 10 16.0934 N/A
3:55 am 03:55 Clear 26 -3.5 22 -5.6 86 86 Calm 30.03 1017 10 16.0934 N/A
4:15 am 04:15 Clear 26 -3.2 23 -5 88 88 Calm 30 1016 10 16.0934 N/A
4:35 am 04:35 Clear 28 -2.5 24 -4.4 87 87 Calm 30 1016 10 16.0934 N/A
4:55 am 04:55 Clear 28 -2 25 -4 86 86 NW 5 7 30 1016 10 16.0934 N/A
5:15 am 05:15 Clear 28 -2 25 -4 86 86 NW 5 7 30 1016 10 16.0934 N/A
5:35 am 05:35 Clear 29 -1.8 25 -4 85 85 N 3 6 30 1016 10 16.0934 N/A
5:55 am 05:55 Clear 29 -1.8 25 -4 85 85 WNW 3 6 30 1016 10 16.0934 N/A
6:15 am 06:15 Partly Cloudy 29 -1.7 25 -4 85 85 WNW 3 6 30 1016 10 16.0934 N/A
6:35 am 06:35 Partly Cloudy 29 -1.6 24 -4.2 83 83 NW 5 7 30 1016 10 16.0934 N/A
6:55 am 06:55 Partly Cloudy 29 -1.7 25 -4.1 84 84 W 5 7 30 1016 10 16.0934 N/A
7:15 am 07:15 Clear 30 -1.2 25 -3.8 83 83 WNW 6 9 30.03 1017 10 16.0934 N/A
7:35 am 07:35 Partly Cloudy 37 2.9 26 -3.1 65 65 NW 10 17 29.97 1015 10 16.0934 N/A
7:55 am 07:55 Partly Cloudy 40 4.6 24 -4.2 53 53 NW 16 26 29.97 1015 10 16.0934 N/A
8:15 am 08:15 Cloudy 40 4.7 23 -4.8 51 51 NNW 16 26 30 1016 10 16.0934 N/A
8:35 am 08:35 Cloudy 40 4.5 23 -5 50 50 NNW 15 24 30 1016 10 16.0934 N/A
8:55 am 08:55 Partly Cloudy 39 4 23 -5 52 52 NNW 13 20 30.03 1017 10 16.0934 N/A
9:15 am 09:15 Mostly Cloudy 39 3.8 23 -5 53 53 NNW 9 15 30.03 1017 10 16.0934 N/A
9:35 am 09:35 Mostly Cloudy 39 4 23 -5 52 52 NNW 8 13 30.03 1017 10 16.0934 N/A
9:55 am 09:55 Mostly Cloudy 39 4.1 22 -5.3 51 51 NNW 9 15 30.06 1018 10 16.0934 N/A
10:15 am 10:15 Partly Cloudy 39 4.1 23 -5.1 52 52 NNW 9 15 30.06 1018 10 16.0934 N/A
10:35 am 10:35 Sunny 40 4.3 23 -4.9 52 52 NW 10 17 30.06 1018 10 16.0934 N/A
10:55 am 10:55 Sunny 40 4.7 22 -5.4 48 48 WNW 6 9 30.09 1019 10 16.0934 N/A
11:15 am 11:15 Sunny 42 5.8 22 -5.4 45 45 NW 7 11 30.09 1019 10 16.0934 N/A
11:35 am 11:35 Sunny 43 6.2 22 -5.5 43 43 NW 9 15 30.06 1018 10 16.0934 N/A
11:55 am 11:55 Partly Cloudy 45 7 22 -5.3 42 42 NW 8 13 30.03 1017 10 16.0934 N/A
12:15 pm 12:15 Sunny 45 7 21 -6 39 39 WNW 10 17 30.03 1017 10 16.0934 N/A
12:35 pm 12:35 Sunny 44 6.6 21 -5.9 41 41 WNW 10 17 30.06 1018 10 16.0934 N/A
12:55 pm 12:55 Sunny 45 7.4 19 -7 36 36 WNW 9 15 30.03 1017 10 16.0934 N/A
1:15 pm 13:15 Sunny 47 8.1 19 -7.1 34 34 NW 13 20 30.03 1017 10 16.0934 N/A
1:35 pm 13:35 Sunny 48 9.1 16 -9 27 27 NNW 22 35 30.03 1017 10 16.0934 N/A
1:55 pm 13:55 Sunny 49 9.2 13 -10.4 24 24 NW 23 37 30.03 1017 10 16.0934 N/A
2:15 pm 14:15 Sunny 48 8.8 13 -10.6 24 24 NW 22 35 30.03 1017 10 16.0934 N/A
2:35 pm 14:35 Sunny 47 8.6 10 -12 22 22 NW 18 30 30.03 1017 10 16.0934 N/A
2:55 pm 14:55 Sunny 47 8.5 8 -13.6 20 20 NW 21 33 30.03 1017 10 16.0934 N/A
3:15 pm 15:15 Sunny 47 8.5 8 -13.4 20 20 NW 21 33 30.03 1017 10 16.0934 N/A
3:35 pm 15:35 Sunny 47 8.4 10 -12.5 22 22 NW 16 26 30.03 1017 10 16.0934 N/A
3:55 pm 15:55 Sunny 47 8.2 9 -12.7 21 21 NW 13 20 30.06 1018 10 16.0934 N/A
4:15 pm 16:15 Sunny 46 7.7 11 -11.9 24 24 NW 12 19 30.06 1018 10 16.0934 N/A
4:35 pm 16:35 Sunny 45 7.1 11 -11.4 26 26 WNW 14 22 30.06 1018 10 16.0934 N/A
4:55 pm 16:55 Sunny 44 6.5 9 -12.6 24 24 NW 17 28 30.09 1019 10 16.0934 N/A
5:15 pm 17:15 Partly Cloudy 42 5.5 10 -12.2 27 27 NW 14 22 30.09 1019 10 16.0934 N/A
5:35 pm 17:35 Partly Cloudy 38 3.5 12 -11.3 33 33 NW 14 22 30.15 1021 10 16.0934 N/A
5:55 pm 17:55 Clear 39 4 11 -11.5 32 32 NW 13 20 30.15 1021 10 16.0934 N/A
6:15 pm 18:15 Clear 37 2.7 12 -11.1 36 36 NW 13 20 30.18 1022 10 16.0934 N/A
6:35 pm 18:35 Clear 37 2.8 12 -11.1 36 36 NW 13 20 30.18 1022 10 16.0934 N/A
6:55 pm 18:55 Clear 36 2.1 12 -11.1 37 37 WNW 14 22 30.21 1023 10 16.0934 N/A
7:15 pm 19:15 Clear 35 1.6 12 -10.9 39 39 WNW 15 24 30.24 1024 10 16.0934 N/A
7:35 pm 19:35 Clear 36 2.2 10 -12 34 34 NW 15 24 30.21 1023 10 16.0934 N/A
7:55 pm 19:55 Clear 34 1.3 11 -11.5 38 38 WNW 13 20 30.27 1025 10 16.0934 N/A
8:15 pm 20:15 Clear 33 0.7 12 -11 42 42 WNW 12 19 30.27 1025 10 16.0934 N/A
8:35 pm 20:35 Clear 32 0 13 -10.5 45 45 WNW 13 20 30.27 1025 10 16.0934 N/A
8:55 pm 20:55 Clear 32 0 13 -10.5 45 45 WNW 13 20 30.3 1026 10 16.0934 N/A
9:15 pm 21:15 Clear 31 -0.5 13 -10.3 48 48 WNW 13 20 30.3 1026 10 16.0934 N/A
9:35 pm 21:35 Clear 30 -1.2 14 -10 52 52 WNW 13 20 30.33 1027 10 16.0934 N/A
9:55 pm 21:55 Clear 31 -0.8 14 -10.1 50 50 WNW 16 26 30.36 1028 10 16.0934 N/A
10:15 pm 22:15 Clear 33 0.5 14 -10 46 46 WNW 17 28 30.33 1027 10 16.0934 N/A
10:35 pm 22:35 Clear 34 1.2 13 -10.5 42 42 WNW 22 35 30.33 1027 10 16.0934 N/A
10:55 pm 22:55 Clear 34 1.2 13 -10.5 42 42 WNW 20 31 30.33 1027 10 16.0934 N/A
11:15 pm 23:15 Clear 34 1 13 -10.5 42 42 WNW 20 31 30.33 1027 10 16.0934 N/A
11:35 pm 23:35 Clear 33 0.6 13 -10.3 44 44 WNW 18 30 30.36 1028 10 16.0934 N/A
11:55 pm 23:55 Clear 32 0.2 14 -10 47 47 WNW 18 30 30.36 1028 10 16.0934 N/A

Powered by AerisWeather